This demonstration page uses our WeatherBlox Daily Observations layout. Learn more.

Hourly Observations for January 12, 2019

Temp ( °F °C ) Dew Point ( °F °C ) Humidity (%) Winds ( mph kmh ) Pressure ( in mb ) Visibility ( mi km ) Precip ( " mm )
12:15 am 00:15 Cloudy 33 0.5 28 -2.2 82 82 NNE 8 13 30.21 1023 10 16.09344 0 0
12:35 am 00:35 Cloudy 33 0.5 28 -2.3 82 82 NNE 7 11 30.21 1023 10 16.09344 0 0
12:55 am 00:55 Cloudy 33 0.3 28 -2.5 82 82 NNE 9 15 30.21 1023 10 16.09344 0 0
1:15 am 01:15 Cloudy 32 0.1 28 -2.4 83 83 N 8 13 30.21 1023 10 16.09344 0 0
1:35 am 01:35 Cloudy 32 0 27 -2.7 82 82 NNE 12 19 30.21 1023 10 16.09344 0 0
1:55 am 01:55 Cloudy 32 0 27 -2.6 83 83 N 12 19 30.21 1023 10 16.09344 0 0
2:15 am 02:15 Cloudy 32 0 27 -2.6 83 83 N 10 17 30.21 1023 10 16.09344 0 0
2:35 am 02:35 Cloudy 32 0 27 -2.6 83 83 N 7 11 30.21 1023 10 16.09344 0 0
2:55 am 02:55 Mostly Cloudy 32 -0.2 27 -2.8 83 83 N 12 19 30.21 1023 10 16.09344 0 0
3:15 am 03:15 Partly Cloudy 31 -0.5 26 -3.1 83 83 N 12 19 30.24 1024 10 16.09344 0 0
3:35 am 03:35 Partly Cloudy 31 -0.7 26 -3.3 83 83 N 12 19 30.24 1024 10 16.09344 0 0
3:55 am 03:55 Partly Cloudy 31 -0.8 26 -3.3 83 83 N 10 17 30.24 1024 10 16.09344 0 0
4:15 am 04:15 Partly Cloudy 30 -1 26 -3.4 84 84 N 14 22 30.24 1024 10 16.09344 0 0
4:35 am 04:35 Partly Cloudy 30 -1 26 -3.5 83 83 N 16 26 30.24 1024 10 16.09344 0 0
4:55 am 04:55 Clear 30 -1.3 25 -3.7 84 84 N 14 22 30.27 1025 10 16.09344 0 0
5:15 am 05:15 Clear 29 -1.8 24 -4.2 84 84 N 15 24 30.27 1025 10 16.09344 0 0
5:35 am 05:35 Clear 28 -2.1 24 -4.6 83 83 N 16 26 30.27 1025 10 16.09344 0 0
5:55 am 05:55 Clear 28 -2.5 23 -4.9 84 84 N 17 28 30.27 1025 10 16.09344 0 0
6:15 am 06:15 Clear 27 -2.9 23 -5 86 86 N 14 22 30.27 1025 10 16.09344 0 0
6:35 am 06:35 Clear 26 -3.2 22 -5.5 84 84 N 14 22 30.3 1026 10 16.09344 0 0
6:55 am 06:55 Clear 26 -3.5 22 -5.7 85 85 N 16 26 30.3 1026 10 16.09344 0 0
7:15 am 07:15 Clear 25 -3.8 21 -6 85 85 N 14 22 30.33 1027 10 16.09344 0 0
7:35 am 07:35 Clear 25 -4 21 -6.1 86 86 N 13 20 30.33 1027 10 16.09344 0 0
7:55 am 07:55 Mostly Cloudy 25 -4 21 -6 86 86 N 13 20 30.33 1027 10 16.09344 0 0
8:15 am 08:15 Cloudy 25 -3.8 21 -6 85 85 N 13 20 30.36 1028 10 16.09344 0 0
8:35 am 08:35 Cloudy 26 -3.5 22 -5.5 86 86 N 13 20 30.33 1027 10 16.09344 0 0
8:55 am 08:55 Cloudy 26 -3.1 23 -5.2 86 86 N 15 24 30.33 1027 7 11.265408 0 0
9:15 am 09:15 Cloudy with Mist and Fog 27 -3 23 -5 86 86 N 10 17 30.33 1027 5 8.04672 0 0
9:35 am 09:35 Cloudy with Mist and Fog 27 -2.7 24 -4.5 88 88 N 13 20 30.36 1028 4 6.437376 0 0
9:55 am 09:55 Cloudy with Mist and Fog 27 -2.6 24 -4.5 87 87 N 13 20 30.36 1028 4 6.437376 0 0
10:15 am 10:15 Cloudy with Mist and Fog 28 -2.5 24 -4.3 88 88 N 15 24 30.36 1028 4 6.437376 0 0
10:35 am 10:35 Cloudy with Mist and Fog 28 -2.5 24 -4.2 88 88 N 15 24 30.36 1028 4 6.437376 0 0
10:55 am 10:55 Cloudy with Mist and Fog 28 -2.2 25 -4.1 87 87 NNE 17 28 30.39 1029 5 8.04672 0 0
11:15 am 11:15 Cloudy with Mist and Fog 28 -2 25 -3.9 87 87 N 16 26 30.39 1029 5 8.04672 0 0
11:35 am 11:35 Cloudy with Mist and Fog 28 -2 25 -3.9 87 87 N 14 22 30.36 1028 5 8.04672 0 0
11:55 am 11:55 Cloudy with Mist and Fog 28 -2 25 -3.8 88 88 N 13 20 30.36 1028 5 8.04672 0 0
12:15 pm 12:15 Cloudy with Mist and Fog 28 -2 25 -4 86 86 N 13 20 30.36 1028 5 8.04672 0 0
12:35 pm 12:35 Cloudy 28 -2 25 -4 86 86 N 14 22 30.36 1028 7 11.265408 0 0
12:55 pm 12:55 Cloudy 28 -2 25 -4 86 86 N 15 24 30.36 1028 7 11.265408 0 0
1:15 pm 13:15 Cloudy 28 -2 25 -4.1 86 86 NNE 15 24 30.36 1028 7 11.265408 0 0
1:35 pm 13:35 Cloudy 29 -1.7 25 -4.1 84 84 N 15 24 30.36 1028 7 11.265408 0 0
1:55 pm 13:55 Cloudy 29 -1.7 24 -4.2 83 83 N 14 22 30.36 1028 10 16.09344 0 0
2:15 pm 14:15 Cloudy 29 -1.7 24 -4.2 83 83 N 10 17 30.36 1028 10 16.09344 0 0
2:35 pm 14:35 Cloudy 29 -1.6 24 -4.3 82 82 N 12 19 30.36 1028 10 16.09344 0 0
2:55 pm 14:55 Cloudy 29 -1.6 24 -4.4 81 81 N 12 19 30.36 1028 10 16.09344 0 0
3:15 pm 15:15 Cloudy 29 -1.6 24 -4.4 81 81 N 12 19 30.36 1028 10 16.09344 0 0
3:35 pm 15:35 Cloudy 29 -1.8 24 -4.5 82 82 N 12 19 30.36 1028 10 16.09344 0 0
3:55 pm 15:55 Cloudy 29 -1.8 24 -4.5 82 82 NNW 12 19 30.39 1029 10 16.09344 0 0
4:15 pm 16:15 Cloudy 28 -2 24 -4.6 83 83 N 10 17 30.39 1029 10 16.09344 0 0
4:35 pm 16:35 Cloudy 28 -2.3 24 -4.7 84 84 NNE 10 17 30.39 1029 10 16.09344 0 0
4:55 pm 16:55 Cloudy 28 -2.4 23 -5 83 83 N 10 17 30.39 1029 10 16.09344 0 0
5:15 pm 17:15 Cloudy 27 -2.6 23 -5 84 84 N 10 17 30.39 1029 10 16.09344 0 0
5:35 pm 17:35 Cloudy 27 -2.8 23 -5.1 84 84 N 9 15 30.45 1031 7 11.265408 0 0
5:55 pm 17:55 Cloudy 26 -3.1 22 -5.3 85 85 NNE 9 15 30.45 1031 10 16.09344 0 0
6:15 pm 18:15 Cloudy 26 -3.2 23 -5.2 86 86 N 7 11 30.45 1031 10 16.09344 0 0
6:35 pm 18:35 Cloudy 26 -3.5 22 -5.3 88 88 N 6 9 30.45 1031 7 11.265408 0 0
6:55 pm 18:55 Cloudy 26 -3.5 22 -5.5 86 86 N 9 15 30.48 1032 10 16.09344 0 0
7:15 pm 19:15 Cloudy 26 -3.6 22 -5.5 87 87 N 8 13 30.48 1032 10 16.09344 0 0
7:35 pm 19:35 Cloudy 25 -3.8 22 -5.5 88 88 NNE 7 11 30.48 1032 7 11.265408 0 0
7:55 pm 19:55 Cloudy 25 -3.9 22 -5.5 89 89 N 8 13 30.48 1032 7 11.265408 0 0
8:15 pm 20:15 Cloudy 25 -4 22 -5.5 89 89 N 8 13 30.48 1032 7 11.265408 0 0
8:35 pm 20:35 Cloudy 25 -4 22 -5.5 89 89 NNE 6 9 30.48 1032 7 11.265408 0 0
8:55 pm 20:55 Cloudy 25 -4.1 22 -5.6 89 89 N 7 11 30.48 1032 7 11.265408 0 0
9:15 pm 21:15 Cloudy 25 -4.1 22 -5.6 89 89 N 7 11 30.48 1032 7 11.265408 0 0
9:35 pm 21:35 Cloudy 25 -4.1 22 -5.6 89 89 NE 6 9 30.48 1032 7 11.265408 0 0
9:55 pm 21:55 Cloudy 25 -4.1 22 -5.6 89 89 NE 5 7 30.48 1032 7 11.265408 0 0
10:15 pm 22:15 Cloudy 24 -4.2 22 -5.6 90 90 NNE 5 7 30.48 1032 7 11.265408 0 0
10:35 pm 22:35 Cloudy 24 -4.2 22 -5.7 89 89 NNE 5 7 30.48 1032 7 11.265408 0 0
10:55 pm 22:55 Cloudy 25 -4.1 22 -5.6 89 89 NNE 5 7 30.48 1032 7 11.265408 0 0
11:15 pm 23:15 Cloudy 25 -4.1 22 -5.7 89 89 NNE 5 7 30.5 1033 7 11.265408 0 0
11:35 pm 23:35 Cloudy 25 -4.1 22 -5.7 89 89 NNE 5 7 30.5 1033 7 11.265408 0 0
11:55 pm 23:55 Cloudy 25 -4 22 -5.7 88 88 NNE 5 7 30.5 1033 7 11.265408 0 0

Powered by AerisWeather